• în România
  • Lista ţărilor
  • Pe 7 zile
  • Temperatura apei
  • Hartă satelitară
  • Meteo pe hartă
  • Widget-uri
  • user-avatar
    Intrare

    Meteo pe oră la Eisenstadt

    Astăzi, 21 Noiembrie, Marţi

    Timp Temperatura Precipitaţii Vânt Presiune Umiditate
    00:00 +3°C° 0,2 mm 1 m/s 722 mmHg 75%
    01:00 +3°C° 0 mm 1 m/s 722 mmHg 76%
    02:00 +3°C° 0,3 mm 1 m/s 722 mmHg 77%
    03:00 +3°C° 0,3 mm 1 m/s 721 mmHg 78%
    04:00 +3°C° 0,3 mm 1 m/s 721 mmHg 79%
    05:00 +3°C° 0,3 mm 1 m/s 721 mmHg 80%
    06:00 +3°C° 0,3 mm 1 m/s 721 mmHg 80%
    07:00 +3°C° 0,3 mm 1 m/s 721 mmHg 81%
    08:00 +3°C° 0,2 mm 2 m/s 721 mmHg 79%
    09:00 +4°C° 0,2 mm 2 m/s 721 mmHg 77%
    10:00 +5°C° 0,2 mm 2 m/s 721 mmHg 76%
    11:00 +6°C° 0,1 mm 2 m/s 721 mmHg 74%
    12:00 +7°C° 0,1 mm 2 m/s 721 mmHg 71%
    13:00 +8°C° 0,1 mm 3 m/s 721 mmHg 69%
    14:00 +7°C° 0 mm 2 m/s 721 mmHg 72%
    15:00 +7°C° 0 mm 2 m/s 721 mmHg 75%
    16:00 +6°C° 0 mm 2 m/s 721 mmHg 78%
    17:00 +6°C° 0,1 mm 2 m/s 721 mmHg 80%
    18:00 +6°C° 0,1 mm 2 m/s 721 mmHg 82%
    19:00 +6°C° 0,1 mm 2 m/s 721 mmHg 84%
    20:00 +6°C° 0,2 mm 2 m/s 721 mmHg 85%
    21:00 +6°C° 0,2 mm 2 m/s 721 mmHg 86%
    22:00 +6°C° 0,2 mm 2 m/s 721 mmHg 86%
    23:00 +6°C° 0,1 mm 2 m/s 721 mmHg 86%

    Mâine, 22 Noiembrie, Miercuri

    Timp Temperatura Precipitaţii Vânt Presiune Umiditate
    00:00 +5°C° 0,1 mm 2 m/s 721 mmHg 85%
    01:00 +5°C° 0,1 mm 2 m/s 721 mmHg 84%
    02:00 +5°C° 0 mm 2 m/s 721 mmHg 83%
    03:00 +5°C° 0 mm 2 m/s 721 mmHg 82%
    04:00 +5°C° 0 mm 2 m/s 721 mmHg 81%
    05:00 +5°C° 0 mm 2 m/s 721 mmHg 80%
    06:00 +5°C° 0 mm 2 m/s 721 mmHg 79%
    07:00 +5°C° 0 mm 2 m/s 721 mmHg 78%
    08:00 +6°C° 0 mm 2 m/s 721 mmHg 75%
    09:00 +7°C° 0 mm 2 m/s 722 mmHg 71%
    10:00 +10°C° 0 mm 1 m/s 722 mmHg 68%
    11:00 +11°C° 0 mm 1 m/s 722 mmHg 66%
    12:00 +12°C° 0 mm 1 m/s 722 mmHg 64%
    13:00 +13°C° 0 mm 1 m/s 721 mmHg 62%
    14:00 +11°C° 0 mm 1 m/s 721 mmHg 67%
    15:00 +10°C° 0 mm 1 m/s 721 mmHg 72%
    16:00 +9°C° 0 mm 1 m/s 721 mmHg 78%
    17:00 +8°C° 0 mm 1 m/s 721 mmHg 78%
    18:00 +8°C° 0 mm 1 m/s 721 mmHg 79%
    19:00 +7°C° 0 mm 1 m/s 721 mmHg 79%
    20:00 +7°C° 0 mm 1 m/s 721 mmHg 77%
    21:00 +7°C° 0 mm 1 m/s 721 mmHg 76%
    22:00 +6°C° 0 mm 1 m/s 721 mmHg 74%
    23:00 +6°C° 0 mm 1 m/s 721 mmHg 73%

    Poimâine, 23 Noiembrie, Joi

    Timp Temperatura Precipitaţii Vânt Presiune Umiditate
    00:00 +6°C° 0 mm 1 m/s 721 mmHg 72%
    01:00 +6°C° 0 mm 1 m/s 721 mmHg 71%
    02:00 +6°C° 0 mm 1 m/s 721 mmHg 72%
    03:00 +5°C° 0 mm 1 m/s 721 mmHg 73%
    04:00 +5°C° 0 mm 1 m/s 721 mmHg 73%
    05:00 +5°C° 0 mm 1 m/s 721 mmHg 74%
    06:00 +4°C° 0 mm 1 m/s 721 mmHg 75%
    07:00 +4°C° 0 mm 1 m/s 721 mmHg 76%
    08:00 +6°C° 0 mm 1 m/s 722 mmHg 74%
    09:00 +7°C° 0 mm 1 m/s 722 mmHg 71%
    10:00 +8°C° 0 mm 1 m/s 723 mmHg 69%
    11:00 +9°C° 0 mm 1 m/s 723 mmHg 68%
    12:00 +10°C° 0 mm 1 m/s 723 mmHg 66%
    13:00 +11°C° 0 mm 1 m/s 723 mmHg 65%
    14:00 +10°C° 0 mm 1 m/s 723 mmHg 70%
    15:00 +8°C° 0 mm 1 m/s 723 mmHg 76%
    16:00 +7°C° 0 mm 1 m/s 724 mmHg 82%
    17:00 +7°C° 0 mm 1 m/s 724 mmHg 82%
    18:00 +6°C° 0 mm 1 m/s 724 mmHg 83%
    19:00 +6°C° 0 mm 1 m/s 724 mmHg 84%
    20:00 +6°C° 0 mm 1 m/s 725 mmHg 82%
    21:00 +5°C° 0 mm 1 m/s 725 mmHg 81%
    22:00 +5°C° 0 mm 1 m/s 725 mmHg 79%
    23:00 +5°C° 0 mm 1 m/s 725 mmHg 78%

    24 Noiembrie, Vineri

    Timp Temperatura Precipitaţii Vânt Presiune Umiditate
    00:00 +5°C° 0 mm 1 m/s 725 mmHg 78%
    01:00 +5°C° 0 mm 1 m/s 725 mmHg 77%
    02:00 +5°C° 0 mm 1 m/s 725 mmHg 77%
    03:00 +5°C° 0 mm 1 m/s 725 mmHg 77%
    04:00 +5°C° 0 mm 1 m/s 725 mmHg 77%
    05:00 +5°C° 0 mm 1 m/s 726 mmHg 77%
    06:00 +5°C° 0 mm 1 m/s 726 mmHg 78%
    07:00 +4°C° 0 mm 0 m/s 726 mmHg 78%
    08:00 +6°C° 0 mm 1 m/s 726 mmHg 75%
    09:00 +7°C° 0 mm 1 m/s 726 mmHg 73%
    10:00 +8°C° 0 mm 1 m/s 726 mmHg 70%
    11:00 +9°C° 0 mm 1 m/s 726 mmHg 68%
    12:00 +10°C° 0 mm 1 m/s 726 mmHg 67%
    13:00 +9°C° 0 mm 2 m/s 726 mmHg 65%
    14:00 +8°C° 0 mm 2 m/s 726 mmHg 70%
    15:00 +7°C° 0 mm 2 m/s 725 mmHg 75%
    16:00 +6°C° 0 mm 2 m/s 725 mmHg 80%
    17:00 +5°C° 0 mm 2 m/s 725 mmHg 81%
    18:00 +5°C° 0 mm 2 m/s 726 mmHg 83%
    19:00 +4°C° 0 mm 2 m/s 726 mmHg 84%
    20:00 +4°C° 0 mm 2 m/s 726 mmHg 84%
    21:00 +4°C° 0 mm 2 m/s 726 mmHg 85%
    22:00 +3°C° 0 mm 2 m/s 726 mmHg 86%
    23:00 +3°C° 0 mm 2 m/s 726 mmHg 87%

    25 Noiembrie, Sâmbătă

    Timp Temperatura Precipitaţii Vânt Presiune Umiditate
    00:00 +3°C° 0 mm 2 m/s 726 mmHg 87%
    01:00 +3°C° 0 mm 2 m/s 726 mmHg 88%
    02:00 +3°C° 0 mm 2 m/s 726 mmHg 89%
    03:00 +3°C° 0 mm 2 m/s 726 mmHg 89%
    04:00 +2°C° 0 mm 2 m/s 725 mmHg 90%
    05:00 +3°C° 0 mm 2 m/s 725 mmHg 90%
    06:00 +3°C° 0 mm 2 m/s 725 mmHg 91%
    07:00 +3°C° 0 mm 2 m/s 725 mmHg 92%
    08:00 +3°C° 0 mm 3 m/s 725 mmHg 88%
    09:00 +4°C° 0 mm 3 m/s 725 mmHg 85%
    10:00 +5°C° 0 mm 4 m/s 725 mmHg 82%
    11:00 +6°C° 0 mm 4 m/s 724 mmHg 80%
    12:00 +7°C° 0 mm 4 m/s 724 mmHg 77%
    13:00 +8°C° 0 mm 5 m/s 723 mmHg 75%
    14:00 +7°C° 0 mm 5 m/s 722 mmHg 77%
    15:00 +7°C° 0 mm 5 m/s 722 mmHg 80%
    16:00 +7°C° 0 mm 5 m/s 721 mmHg 83%
    17:00 +7°C° 0 mm 5 m/s 721 mmHg 84%
    18:00 +6°C° 0 mm 5 m/s 722 mmHg 85%
    19:00 +6°C° 0 mm 5 m/s 722 mmHg 86%
    20:00 +6°C° 0 mm 4 m/s 722 mmHg 86%
    21:00 +7°C° 0 mm 3 m/s 723 mmHg 86%
    22:00 +5°C° 0 mm 3 m/s 723 mmHg 87%
    23:00 +6°C° 0 mm 2 m/s 724 mmHg 85%

    26 Noiembrie, Duminică

    Timp Temperatura Precipitaţii Vânt Presiune Umiditate
    00:00 +6°C° 0 mm 2 m/s 725 mmHg 84%
    01:00 +6°C° 0 mm 2 m/s 725 mmHg 83%
    02:00 +5°C° 0,1 mm 3 m/s 726 mmHg 81%
    03:00 +5°C° 0,1 mm 3 m/s 726 mmHg 79%
    04:00 +5°C° 0,1 mm 3 m/s 726 mmHg 78%
    05:00 +5°C° 0,5 mm 3 m/s 727 mmHg 79%
    06:00 +5°C° 0,5 mm 2 m/s 727 mmHg 81%
    07:00 +5°C° 0,5 mm 2 m/s 727 mmHg 82%
    08:00 +5°C° 0,7 mm 2 m/s 728 mmHg 82%
    09:00 +5°C° 0,7 mm 2 m/s 728 mmHg 83%
    10:00 +4°C° 0,7 mm 3 m/s 728 mmHg 83%
    11:00 +4°C° 0,5 mm 3 m/s 728 mmHg 82%
    12:00 +4°C° 0,5 mm 3 m/s 729 mmHg 81%
    13:00 +4°C° 0,5 mm 3 m/s 729 mmHg 79%
    14:00 +4°C° 0,5 mm 3 m/s 729 mmHg 77%
    15:00 +3°C° 0,5 mm 4 m/s 729 mmHg 75%
    16:00 +3°C° 0,5 mm 4 m/s 730 mmHg 72%
    17:00 +1°C° 0,1 mm 4 m/s 730 mmHg 73%
    18:00 +2°C° 0,1 mm 3 m/s 731 mmHg 73%
    19:00 +2°C° 0,1 mm 3 m/s 732 mmHg 74%
    20:00 +2°C° 0 mm 3 m/s 732 mmHg 75%
    21:00 +1°C° 0 mm 3 m/s 732 mmHg 76%
    22:00 +2°C° 0 mm 2 m/s 733 mmHg 78%
    23:00 +1°C° 0 mm 2 m/s 733 mmHg 79%
    Arată mai mult